Home > Time Zones > World Clock > Weather > Macau > Macau > Past weeks

Flag for Macau Weather past 2 weeks in Macau, Macau

Now
72 °F

Scattered clouds.


Feels Like: 74 °F
Forecast: 69 / 75 °F
Wind: 20 mph from North

Location: Taipa

Current Time: Apr 21, 2015 at 10:37:45 AM

Latest Report: Apr 21, 2015 at 10:00 AM


Visibility: N/A

Pressure: 29.95 "Hg

Humidity: 73%

Dew point: 63 °F

Location of MacauLocation

Historic Weather in Macau — Graph

°F

Macau temperature yesterday

Maximum temperature yesterday: 81 °F (at 12:00 PM)
Minimum temperature yesterday: 72 °F (at 11:00 PM)
Average temperature yesterday: 77 °F

Past Weeks' High & Low Weather Summary

 TemperatureHumidityPressure
High82 °F (Apr 6, 12:30 PM)100% (Apr 8, 5:30 PM)30.15 "Hg (Apr 8, 5:30 PM)
Low59 °F (Apr 11, 3:30 AM)25% (Apr 14, 1:00 PM)29.68 "Hg (Apr 20, 3:30 AM)
Average70 °F81%29.96 "Hg
* Reported Apr 6 9:00 AM — Apr 21 9:30 AM, Macau, Weather by CustomWeather, © 2015

Note: Actual official high and low records may vary slightly from our data, if they occured in-between our weather recording intervals... More about our weather records

Advertising

Macau weather history for previous 24 hours

 ConditionsComfort  
Time TempWeatherWind HumidityBarometerVisibility
9:30 AM
Tue, Apr 21
72 °FScattered clouds.18 mph78%29.95 "HgN/A
9:00 AM72 °FScattered clouds.18 mph73%29.92 "HgN/A
8:30 AM72 °FScattered clouds.20 mph78%29.92 "HgN/A
8:00 AM70 °FScattered clouds.20 mph83%29.89 "HgN/A
7:30 AM70 °FScattered clouds.16 mph78%29.89 "HgN/A
7:00 AM70 °FScattered clouds.16 mph83%29.86 "HgN/A
6:30 AM70 °FScattered clouds.18 mph83%29.86 "HgN/A
6:00 AM70 °FPassing clouds.18 mph83%29.86 "HgN/A
5:00 AM70 °FPassing clouds.18 mph83%29.83 "HgN/A
4:30 AM70 °FPassing clouds.16 mph83%29.80 "HgN/A
4:00 AM70 °FPassing clouds.16 mph83%29.83 "HgN/A
3:30 AM72 °FPassing clouds.16 mph83%29.80 "HgN/A
3:00 AM72 °FPassing clouds.13 mph83%29.80 "HgN/A
2:30 AM72 °FPassing clouds.14 mph83%29.80 "HgN/A
2:00 AM72 °FPassing clouds.12 mph83%29.80 "HgN/A
1:30 AM72 °FPassing clouds.13 mph83%29.83 "HgN/A
1:00 AM72 °FPassing clouds.13 mph83%29.83 "HgN/A
12:30 AM72 °FPassing clouds.16 mph83%29.83 "HgN/A
12:00 AM72 °FPassing clouds.17 mph88%29.83 "HgN/A
11:30 PM
Mon, Apr 20
72 °FPassing clouds.14 mph83%29.83 "HgN/A
11:00 PM72 °FPassing clouds.14 mph88%29.83 "HgN/A
10:30 PM73 °FPassing clouds.15 mph83%29.83 "HgN/A
10:00 PM73 °FPassing clouds.13 mph83%29.83 "HgN/A
9:30 PM73 °FPassing clouds.14 mph89%29.80 "Hg6 mi
9:00 PM75 °FPassing clouds.12 mph89%29.80 "Hg5 mi
8:30 PM75 °FSprinkles. Passing clouds.8 mph89%29.77 "Hg4 mi
8:00 PM77 °FThundershowers. Passing clouds.15 mph83%29.77 "HgN/A
7:30 PM77 °FThundershowers. Passing clouds.6 mph94%29.74 "Hg6 mi
7:00 PM77 °FPassing clouds.7 mph94%29.74 "Hg6 mi
6:30 PM77 °FScattered clouds.13 mph94%29.71 "Hg6 mi
6:00 PM77 °FScattered clouds.12 mph94%29.71 "Hg6 mi
5:30 PM79 °FScattered clouds.15 mph89%29.68 "Hg6 mi
5:00 PM79 °FScattered clouds.8 mph89%29.68 "Hg6 mi
4:30 PM79 °FScattered clouds.6 mph89%29.68 "Hg6 mi
4:00 PM81 °FScattered clouds.12 mph84%29.71 "Hg6 mi
3:30 PM81 °FScattered clouds.15 mph84%29.71 "Hg6 mi
3:00 PM81 °FScattered clouds.10 mph89%29.71 "Hg5 mi
2:30 PM81 °FScattered clouds.8 mph84%29.71 "Hg5 mi
2:00 PM81 °FScattered clouds.12 mph84%29.71 "HgN/A
1:30 PM81 °FScattered clouds.10 mph89%29.74 "Hg6 mi
1:00 PM81 °FScattered clouds.13 mph84%29.74 "Hg6 mi
12:30 PM81 °FScattered clouds.10 mph84%29.74 "Hg6 mi
12:00 PM81 °FScattered clouds.9 mph89%29.77 "Hg6 mi
11:30 AM77 °FBroken clouds.7 mph94%29.77 "Hg5 mi
10:30 AM79 °FBroken clouds.13 mph89%29.77 "Hg4 mi
10:00 AM77 °FBroken clouds.7 mph94%29.77 "Hg4 mi
Weather by CustomWeather, © 2015

See weather overviewHow to use our weather pages